When you browse on this site, cookies collect data to enhance your experience and personalize the content and advertising you see.
Visit our Privacy Policy to learn more. By continuing to use the site, you agree to this use of cookies and data.
  • In United Kingdom
  • List of Countries
  • For 7 days
  • Water Temperature
  • Weather Map
  • Weather Widgets
  • user-avatar
    Login

    Hourly Weather Hajduszoboszlo

    Today, 23 September, Monday

    Time Temperature Precipitation Wind Pressure Humidity
    00:00 +14°C° 0 mm 2 mps 754 mmHg 40%
    01:00 +14°C° 0 mm 2 mps 754 mmHg 40%
    02:00 +14°C° 0 mm 2 mps 753 mmHg 41%
    03:00 +14°C° 0 mm 1 mps 753 mmHg 42%
    04:00 +14°C° 0 mm 1 mps 753 mmHg 44%
    05:00 +14°C° 0 mm 1 mps 753 mmHg 43%
    06:00 +15°C° 0 mm 1 mps 753 mmHg 43%
    07:00 +16°C° 0 mm 1 mps 753 mmHg 42%
    08:00 +16°C° 0 mm 1 mps 753 mmHg 41%
    09:00 +18°C° 0 mm 1 mps 753 mmHg 40%
    10:00 +19°C° 0 mm 1 mps 753 mmHg 39%
    11:00 +20°C° 0 mm 1 mps 753 mmHg 39%
    12:00 +19°C° 0 mm 2 mps 753 mmHg 39%
    13:00 +19°C° 0 mm 2 mps 752 mmHg 39%
    14:00 +19°C° 0 mm 2 mps 752 mmHg 41%
    15:00 +18°C° 0 mm 2 mps 752 mmHg 43%
    16:00 +18°C° 0 mm 2 mps 752 mmHg 45%
    17:00 +17°C° 0 mm 2 mps 752 mmHg 47%
    18:00 +17°C° 0 mm 2 mps 752 mmHg 50%
    19:00 +17°C° 0 mm 2 mps 752 mmHg 52%
    20:00 +17°C° 0 mm 2 mps 752 mmHg 53%
    21:00 +16°C° 0 mm 2 mps 752 mmHg 54%
    22:00 +16°C° 0 mm 2 mps 751 mmHg 54%
    23:00 +16°C° 0 mm 3 mps 751 mmHg 57%

    Tomorrow, 24 September, Tuesday

    Time Temperature Precipitation Wind Pressure Humidity
    00:00 +14°C° 0 mm 3 mps 751 mmHg 59%
    01:00 +14°C° 0 mm 3 mps 751 mmHg 62%
    02:00 +13°C° 0 mm 3 mps 751 mmHg 63%
    03:00 +13°C° 0 mm 3 mps 751 mmHg 64%
    04:00 +12°C° 0 mm 3 mps 751 mmHg 65%
    05:00 +13°C° 0 mm 3 mps 751 mmHg 62%
    06:00 +14°C° 0 mm 3 mps 751 mmHg 59%
    07:00 +14°C° 0 mm 4 mps 751 mmHg 56%
    08:00 +17°C° 0 mm 4 mps 751 mmHg 52%
    09:00 +19°C° 0 mm 3 mps 751 mmHg 47%
    10:00 +21°C° 0 mm 3 mps 751 mmHg 43%
    11:00 +22°C° 0 mm 4 mps 751 mmHg 42%
    12:00 +23°C° 0 mm 4 mps 751 mmHg 40%
    13:00 +25°C° 0 mm 4 mps 750 mmHg 38%
    14:00 +23°C° 0 mm 4 mps 750 mmHg 41%
    15:00 +24°C° 0 mm 3 mps 750 mmHg 44%
    16:00 +22°C° 0 mm 3 mps 750 mmHg 47%
    17:00 +21°C° 0 mm 3 mps 750 mmHg 52%
    18:00 +20°C° 0 mm 3 mps 750 mmHg 57%
    19:00 +18°C° 0 mm 3 mps 751 mmHg 62%
    20:00 +18°C° 0 mm 3 mps 751 mmHg 63%
    21:00 +18°C° 0 mm 3 mps 751 mmHg 63%
    22:00 +18°C° 0 mm 2 mps 751 mmHg 63%
    23:00 +17°C° 0 mm 3 mps 751 mmHg 66%

    Day after tomorrow, 25 September, Wednesday

    Time Temperature Precipitation Wind Pressure Humidity
    00:00 +17°C° 0 mm 3 mps 751 mmHg 68%
    01:00 +17°C° 0 mm 3 mps 751 mmHg 71%
    02:00 +16°C° 0.7 mm 2 mps 751 mmHg 78%
    03:00 +16°C° 0.7 mm 2 mps 751 mmHg 84%
    04:00 +15°C° 0.7 mm 2 mps 751 mmHg 91%
    05:00 +15°C° 1.5 mm 2 mps 751 mmHg 92%
    06:00 +15°C° 1.5 mm 2 mps 751 mmHg 93%
    07:00 +15°C° 1.5 mm 2 mps 751 mmHg 95%
    08:00 +15°C° 0.9 mm 2 mps 751 mmHg 94%
    09:00 +15°C° 0.9 mm 2 mps 751 mmHg 92%
    10:00 +16°C° 0.9 mm 3 mps 751 mmHg 91%
    11:00 +16°C° 0.3 mm 3 mps 751 mmHg 90%
    12:00 +16°C° 0.3 mm 3 mps 751 mmHg 89%
    13:00 +16°C° 0.3 mm 2 mps 751 mmHg 87%
    14:00 +16°C° 0 mm 2 mps 751 mmHg 86%
    15:00 +16°C° 0 mm 2 mps 750 mmHg 86%
    16:00 +16°C° 0 mm 2 mps 750 mmHg 85%
    17:00 +16°C° 0 mm 2 mps 750 mmHg 87%
    18:00 +15°C° 0 mm 2 mps 751 mmHg 90%
    19:00 +15°C° 0 mm 2 mps 751 mmHg 93%
    20:00 +15°C° 0 mm 1 mps 751 mmHg 93%
    21:00 +15°C° 0 mm 1 mps 751 mmHg 93%
    22:00 +14°C° 0 mm 1 mps 751 mmHg 94%
    23:00 +14°C° 0 mm 1 mps 751 mmHg 93%

    26 September, Thursday

    Time Temperature Precipitation Wind Pressure Humidity
    00:00 +14°C° 0 mm 1 mps 751 mmHg 93%
    01:00 +13°C° 0 mm 0 mps 751 mmHg 92%
    02:00 +13°C° 0 mm 0 mps 751 mmHg 92%
    03:00 +15°C° 0 mm 1 mps 751 mmHg 91%
    04:00 +15°C° 0 mm 1 mps 751 mmHg 91%
    05:00 +15°C° 0 mm 1 mps 751 mmHg 90%
    06:00 +14°C° 0 mm 0 mps 751 mmHg 89%
    07:00 +14°C° 0 mm 0 mps 752 mmHg 88%
    08:00 +15°C° 0.1 mm 0 mps 752 mmHg 84%
    09:00 +18°C° 0.1 mm 1 mps 752 mmHg 80%
    10:00 +19°C° 0.1 mm 1 mps 753 mmHg 76%
    11:00 +18°C° 0.4 mm 2 mps 752 mmHg 78%
    12:00 +17°C° 0.4 mm 2 mps 752 mmHg 80%
    13:00 +17°C° 0.4 mm 3 mps 752 mmHg 82%
    14:00 +17°C° 0.1 mm 2 mps 752 mmHg 83%
    15:00 +16°C° 0.1 mm 2 mps 752 mmHg 83%
    16:00 +16°C° 0.1 mm 1 mps 752 mmHg 83%
    17:00 +15°C° 0 mm 1 mps 753 mmHg 85%
    18:00 +15°C° 0 mm 1 mps 753 mmHg 87%
    19:00 +14°C° 0 mm 1 mps 753 mmHg 89%
    20:00 +14°C° 0 mm 1 mps 753 mmHg 90%
    21:00 +13°C° 0 mm 1 mps 754 mmHg 90%
    22:00 +13°C° 0 mm 1 mps 754 mmHg 90%
    23:00 +13°C° 0 mm 1 mps 754 mmHg 90%

    27 September, Friday

    Time Temperature Precipitation Wind Pressure Humidity
    00:00 +13°C° 0 mm 1 mps 754 mmHg 90%
    01:00 +11°C° 0 mm 0 mps 754 mmHg 91%
    02:00 +12°C° 0 mm 1 mps 754 mmHg 91%
    03:00 +12°C° 0 mm 1 mps 755 mmHg 91%
    04:00 +12°C° 0 mm 1 mps 755 mmHg 92%
    05:00 +12°C° 0 mm 1 mps 755 mmHg 90%
    06:00 +13°C° 0 mm 1 mps 755 mmHg 87%
    07:00 +14°C° 0 mm 1 mps 755 mmHg 85%
    08:00 +15°C° 0 mm 1 mps 755 mmHg 77%
    09:00 +18°C° 0 mm 1 mps 755 mmHg 69%
    10:00 +20°C° 0 mm 1 mps 756 mmHg 60%
    11:00 +21°C° 0 mm 1 mps 755 mmHg 56%
    12:00 +22°C° 0 mm 1 mps 755 mmHg 51%
    13:00 +23°C° 0 mm 1 mps 755 mmHg 46%
    14:00 +23°C° 0 mm 1 mps 755 mmHg 46%
    15:00 +23°C° 0 mm 1 mps 755 mmHg 46%
    16:00 +23°C° 0 mm 1 mps 754 mmHg 45%
    17:00 +21°C° 0 mm 1 mps 755 mmHg 49%
    18:00 +20°C° 0 mm 1 mps 755 mmHg 53%
    19:00 +18°C° 0 mm 1 mps 755 mmHg 57%
    20:00 +18°C° 0 mm 1 mps 755 mmHg 59%
    21:00 +17°C° 0 mm 2 mps 756 mmHg 61%
    22:00 +16°C° 0 mm 2 mps 756 mmHg 63%
    23:00 +16°C° 0 mm 2 mps 756 mmHg 65%

    28 September, Saturday

    Time Temperature Precipitation Wind Pressure Humidity
    00:00 +15°C° 0 mm 2 mps 755 mmHg 67%
    01:00 +15°C° 0 mm 2 mps 755 mmHg 70%
    02:00 +15°C° 0 mm 2 mps 755 mmHg 71%
    03:00 +14°C° 0 mm 2 mps 755 mmHg 73%
    04:00 +14°C° 0 mm 2 mps 756 mmHg 74%
    05:00 +15°C° 0 mm 2 mps 755 mmHg 73%
    06:00 +15°C° 0 mm 2 mps 755 mmHg 71%
    07:00 +16°C° 0 mm 2 mps 755 mmHg 70%
    08:00 +18°C° 0 mm 2 mps 755 mmHg 63%
    09:00 +19°C° 0 mm 2 mps 756 mmHg 57%
    10:00 +21°C° 0 mm 3 mps 756 mmHg 50%
    11:00 +22°C° 0 mm 3 mps 755 mmHg 48%
    12:00 +24°C° 0 mm 3 mps 755 mmHg 46%
    13:00 +25°C° 0 mm 3 mps 754 mmHg 43%
    14:00 +25°C° 0 mm 2 mps 754 mmHg 45%
    15:00 +24°C° 0 mm 2 mps 754 mmHg 46%
    16:00 +24°C° 0 mm 2 mps 754 mmHg 48%
    17:00 +23°C° 0 mm 2 mps 754 mmHg 51%
    18:00 +20°C° 0 mm 2 mps 754 mmHg 54%
    19:00 +19°C° 0 mm 2 mps 754 mmHg 57%
    20:00 +19°C° 0 mm 2 mps 754 mmHg 58%
    21:00 +18°C° 0 mm 2 mps 754 mmHg 59%
    22:00 +18°C° 0 mm 2 mps 754 mmHg 60%
    23:00 +17°C° 0 mm 2 mps 754 mmHg 61%
    Show more